Location: Most
(50.5133°N, 13.6207°E)
Time: 11:00:17
(UTC+01:00)

SEEDS - Pass Details

Date: 28 November 2021
Orbit: 584 x 600 km, 97.6° (Epoch: 22 January)

Event Time Altitude Azimuth Distance (km) Brightness Sun altitude
Rises 04:24:46 0° 17° (NNE) 2,828 ? -30.3°
Reaches altitude 10° 04:27:00 10° 23° (NNE) 1,920 ? -29.9°
Enters shadow 04:28:15 19° 29° (NNE) 1,436 ? -29.7°
